owner,sensor,date,latitude,longitude,vertical_datum,sea_water_practical_salinity,qcFlag 
NERRS,ioos:station:NOAA.NERRS:gndbhwq:1,2015-01-02T15:00:00Z,30.4178,-88.4054,1.06,21.2,1111122 
NERRS,ioos:station:NOAA.NERRS:gndbhwq:1,2015-01-02T16:00:00Z,30.4178,-88.4054,1.18,21.1,1111122 
NERRS,ioos:station:NOAA.NERRS:gndbhwq:1,2015-01-02T17:00:00Z,30.4178,-88.4054,1.17,21.0,1111122 
NERRS,ioos:station:NOAA.NERRS:gndbhwq:1,2015-01-02T18:00:00Z,30.4178,-88.4054,1.23,21.1,1111122 
NERRS,ioos:station:NOAA.NERRS:gndbhwq:1,2015-01-02T19:00:00Z,30.4178,-88.4054,1.22,21.1,1111122 
NERRS,ioos:station:NOAA.NERRS:gndbhwq:1,2015-01-02T21:00:00Z,30.4178,-88.4054,1.31,21.0,1111122 
NERRS,ioos:station:NOAA.NERRS:gndbhwq:1,2015-01-02T22:00:00Z,30.4178,-88.4054,1.36,21.0,1111122 
NERRS,ioos:station:NOAA.NERRS:gndbhwq:1,2015-01-02T23:00:00Z,30.4178,-88.4054,1.42,21.1,1111122 
NERRS,ioos:station:NOAA.NERRS:gndbhwq:1,2015-01-03T00:00:00Z,30.4178,-88.4054,1.45,21.1,1111122 
NERRS,ioos:station:NOAA.NERRS:gndbhwq:1,2015-01-03T01:00:00Z,30.4178,-88.4054,1.5,21.1,1111122 
NERRS,ioos:station:NOAA.NERRS:gndbhwq:1,2015-01-03T03:00:00Z,30.4178,-88.4054,1.51,21.0,1111122 
NERRS,ioos:station:NOAA.NERRS:gndbhwq:1,2015-01-03T04:00:00Z,30.4178,-88.4054,1.46,21.0,1111122 
NERRS,ioos:station:NOAA.NERRS:gndbhwq:1,2015-01-03T05:00:00Z,30.4178,-88.4054,1.45,20.9,1111122 
NERRS,ioos:station:NOAA.NERRS:gndbhwq:1,2015-01-03T06:00:00Z,30.4178,-88.4054,1.32,20.8,1111122 
NERRS,ioos:station:NOAA.NERRS:gndbhwq:1,2015-01-03T07:00:00Z,30.4178,-88.4054,1.23,20.8,1111122 
NERRS,ioos:station:NOAA.NERRS:gndbhwq:1,2015-01-03T08:00:00Z,30.4178,-88.4054,1.15,20.7,1111122 
NERRS,ioos:station:NOAA.NERRS:gndbhwq:1,2015-01-03T09:00:00Z,30.4178,-88.4054,1.04,20.6,1111122 
NERRS,ioos:station:NOAA.NERRS:gndbhwq:1,2015-01-03T10:00:00Z,30.4178,-88.4054,0.99,20.5,1111122 
NERRS,ioos:station:NOAA.NERRS:gndbhwq:1,2015-01-03T11:00:00Z,30.4178,-88.4054,0.98,20.6,1111122 
NERRS,ioos:station:NOAA.NERRS:gndbhwq:1,2015-01-03T12:00:00Z,30.4178,-88.4054,1.03,20.5,1111122 
NERRS,ioos:station:NOAA.NERRS:gndbhwq:1,2015-01-03T13:00:00Z,30.4178,-88.4054,0.96,20.4,1111122 
NERRS,ioos:station:NOAA.NERRS:gndbhwq:1,2015-01-03T14:00:00Z,30.4178,-88.4054,1.1,20.4,1111122 
NERRS,ioos:station:NOAA.NERRS:gndbhwq:1,2015-01-03T15:00:00Z,30.4178,-88.4054,1.1,20.3,1111122 
NERRS,ioos:station:NOAA.NERRS:gndbhwq:1,2015-01-03T16:00:00Z,30.4178,-88.4054,1.18,20.5,1111122 
NERRS,ioos:station:NOAA.NERRS:gndbhwq:1,2015-01-03T17:00:00Z,30.4178,-88.4054,1.16,20.5,1111122 
NERRS,ioos:station:NOAA.NERRS:gndbhwq:1,2015-01-03T19:00:00Z,30.4178,-88.4054,1.3,20.5,1111122 
NERRS,ioos:station:NOAA.NERRS:gndbhwq:1,2015-01-03T20:00:00Z,30.4178,-88.4054,1.39,20.6,1111122 
NERRS,ioos:station:NOAA.NERRS:gndbhwq:1,2015-01-03T21:00:00Z,30.4178,-88.4054,1.43,20.5,1111122 
NERRS,ioos:station:NOAA.NERRS:gndbhwq:1,2015-01-03T22:00:00Z,30.4178,-88.4054,1.49,20.5,1111122 
NERRS,ioos:station:NOAA.NERRS:gndbhwq:1,2015-01-03T23:00:00Z,30.4178,-88.4054,1.51,20.5,1111122 
NERRS,ioos:station:NOAA.NERRS:gndbhwq:1,2015-01-04T00:00:00Z,30.4178,-88.4054,1.58,20.6,1111122 
NERRS,ioos:station:NOAA.NERRS:gndbhwq:1,2015-01-04T01:00:00Z,30.4178,-88.4054,1.66,20.6,1111122 
NERRS,ioos:station:NOAA.NERRS:gndbhwq:1,2015-01-04T02:00:00Z,30.4178,-88.4054,1.65,20.5,1111122 
NERRS,ioos:station:NOAA.NERRS:gndbhwq:1,2015-01-04T03:00:00Z,30.4178,-88.4054,1.69,20.6,1111122 
NERRS,ioos:station:NOAA.NERRS:gndbhwq:1,2015-01-04T04:00:00Z,30.4178,-88.4054,1.63,20.2,1111122 
NERRS,ioos:station:NOAA.NERRS:gndbhwq:1,2015-01-04T05:00:00Z,30.4178,-88.4054,1.58,20.6,1111122 
NERRS,ioos:station:NOAA.NERRS:gndbhwq:1,2015-01-04T07:00:00Z,30.4178,-88.4054,1.41,20.5,1111122 
NERRS,ioos:station:NOAA.NERRS:gndbhwq:1,2015-01-04T08:00:00Z,30.4178,-88.4054,1.38,20.6,1111122 
NERRS,ioos:station:NOAA.NERRS:gndbhwq:1,2015-01-04T09:00:00Z,30.4178,-88.4054,1.25,20.7,1111122 
NERRS,ioos:station:NOAA.NERRS:gndbhwq:1,2015-01-04T10:00:00Z,30.4178,-88.4054,1.17,20.4,1111122 
NERRS,ioos:station:NOAA.NERRS:gndbhwq:1,2015-01-04T11:00:00Z,30.4178,-88.4054,1.02,20.3,1111122 
NERRS,ioos:station:NOAA.NERRS:gndbhwq:1,2015-01-04T12:00:00Z,30.4178,-88.4054,0.9,20.3,1111122 
NERRS,ioos:station:NOAA.NERRS:gndbhwq:1,2015-01-04T13:00:00Z,30.4178,-88.4054,0.94,20.5,1111122 
NERRS,ioos:station:NOAA.NERRS:gndbhwq:1,2015-01-04T14:00:00Z,30.4178,-88.4054,0.86,20.5,1111122 
NERRS,ioos:station:NOAA.NERRS:gndbhwq:1,2015-01-04T15:00:00Z,30.4178,-88.4054,0.95,20.3,1111122 
NERRS,ioos:station:NOAA.NERRS:gndbhwq:1,2015-01-04T16:00:00Z,30.4178,-88.4054,0.97,21.1,1111122 
NERRS,ioos:station:NOAA.NERRS:gndbhwq:1,2015-01-04T17:00:00Z,30.4178,-88.4054,1.05,20.9,1111122 
NERRS,ioos:station:NOAA.NERRS:gndbhwq:1,2015-01-04T18:00:00Z,30.4178,-88.4054,1.05,21.2,1111122 
NERRS,ioos:station:NOAA.NERRS:gndbhwq:1,2015-01-04T19:00:00Z,30.4178,-88.4054,1.06,21.2,1111122 
NERRS,ioos:station:NOAA.NERRS:gndbhwq:1,2015-01-04T20:00:00Z,30.4178,-88.4054,1.05,21.3,1111122 
NERRS,ioos:station:NOAA.NERRS:gndbhwq:1,2015-01-04T21:00:00Z,30.4178,-88.4054,1.2,21.7,1111122 
NERRS,ioos:station:NOAA.NERRS:gndbhwq:1,2015-01-04T22:00:00Z,30.4178,-88.4054,1.27,22.0,1111122 
NERRS,ioos:station:NOAA.NERRS:gndbhwq:1,2015-01-04T23:00:00Z,30.4178,-88.4054,1.3,21.7,1111122 
NERRS,ioos:station:NOAA.NERRS:gndbhwq:1,2015-01-05T00:00:00Z,30.4178,-88.4054,1.32,21.9,1111122 
NERRS,ioos:station:NOAA.NERRS:gndbhwq:1,2015-01-05T01:00:00Z,30.4178,-88.4054,1.39,21.8,1111122 
NERRS,ioos:station:NOAA.NERRS:gndbhwq:1,2015-01-05T02:00:00Z,30.4178,-88.4054,1.36,21.9,1111122 
NERRS,ioos:station:NOAA.NERRS:gndbhwq:1,2015-01-05T03:00:00Z,30.4178,-88.4054,1.4,21.9,1111122 
NERRS,ioos:station:NOAA.NERRS:gndbhwq:1,2015-01-05T04:00:00Z,30.4178,-88.4054,1.33,21.8,1111122 
NERRS,ioos:station:NOAA.NERRS:gndbhwq:1,2015-01-05T05:00:00Z,30.4178,-88.4054,1.23,21.5,1111122 
NERRS,ioos:station:NOAA.NERRS:gndbhwq:1,2015-01-05T07:00:00Z,30.4178,-88.4054,1.01,21.4,1111122 
NERRS,ioos:station:NOAA.NERRS:gndbhwq:1,2015-01-05T08:00:00Z,30.4178,-88.4054,1.06,21.8,1111122 
NERRS,ioos:station:NOAA.NERRS:gndbhwq:1,2015-01-05T09:00:00Z,30.4178,-88.4054,1.03,21.6,1111122 
NERRS,ioos:station:NOAA.NERRS:gndbhwq:1,2015-01-05T10:00:00Z,30.4178,-88.4054,0.91,21.4,1111122 
NERRS,ioos:station:NOAA.NERRS:gndbhwq:1,2015-01-05T11:00:00Z,30.4178,-88.4054,0.89,21.5,1111122 
NERRS,ioos:station:NOAA.NERRS:gndbhwq:1,2015-01-05T12:00:00Z,30.4178,-88.4054,0.81,21.2,1111122 
NERRS,ioos:station:NOAA.NERRS:gndbhwq:1,2015-01-05T13:00:00Z,30.4178,-88.4054,0.77,21.3,1111122 
NERRS,ioos:station:NOAA.NERRS:gndbhwq:1,2015-01-05T14:00:00Z,30.4178,-88.4054,0.89,21.5,1111122 
NERRS,ioos:station:NOAA.NERRS:gndbhwq:1,2015-01-05T15:00:00Z,30.4178,-88.4054,0.82,21.4,1111122 
NERRS,ioos:station:NOAA.NERRS:gndbhwq:1,2015-01-05T16:00:00Z,30.4178,-88.4054,0.88,21.8,1111122 
NERRS,ioos:station:NOAA.NERRS:gndbhwq:1,2015-01-05T17:00:00Z,30.4178,-88.4054,0.93,21.8,1111122 
NERRS,ioos:station:NOAA.NERRS:gndbhwq:1,2015-01-05T18:00:00Z,30.4178,-88.4054,1.01,21.8,1111122 
NERRS,ioos:station:NOAA.NERRS:gndbhwq:1,2015-01-05T19:00:00Z,30.4178,-88.4054,1.04,21.9,1111122 
NERRS,ioos:station:NOAA.NERRS:gndbhwq:1,2015-01-05T20:00:00Z,30.4178,-88.4054,1.14,21.8,1111122 
NERRS,ioos:station:NOAA.NERRS:gndbhwq:1,2015-01-05T21:00:00Z,30.4178,-88.4054,1.21,21.8,1111122 
NERRS,ioos:station:NOAA.NERRS:gndbhwq:1,2015-01-05T22:00:00Z,30.4178,-88.4054,1.22,21.6,1111122 
NERRS,ioos:station:NOAA.NERRS:gndbhwq:1,2015-01-05T23:00:00Z,30.4178,-88.4054,1.27,21.6,1111122 
NERRS,ioos:station:NOAA.NERRS:gndbhwq:1,2015-01-06T00:00:00Z,30.4178,-88.4054,1.32,21.5,1111122 
NERRS,ioos:station:NOAA.NERRS:gndbhwq:1,2015-01-06T01:00:00Z,30.4178,-88.4054,1.36,21.4,1111122 
NERRS,ioos:station:NOAA.NERRS:gndbhwq:1,2015-01-06T02:00:00Z,30.4178,-88.4054,1.39,21.4,1111122 
NERRS,ioos:station:NOAA.NERRS:gndbhwq:1,2015-01-06T03:00:00Z,30.4178,-88.4054,1.45,21.4,1111122 
NERRS,ioos:station:NOAA.NERRS:gndbhwq:1,2015-01-06T04:00:00Z,30.4178,-88.4054,1.42,21.3,1111122 
NERRS,ioos:station:NOAA.NERRS:gndbhwq:1,2015-01-06T05:00:00Z,30.4178,-88.4054,1.39,21.2,1111122 
NERRS,ioos:station:NOAA.NERRS:gndbhwq:1,2015-01-06T06:00:00Z,30.4178,-88.4054,1.32,21.1,1111122 
NERRS,ioos:station:NOAA.NERRS:gndbhwq:1,2015-01-06T07:00:00Z,30.4178,-88.4054,1.26,20.9,1111122 
NERRS,ioos:station:NOAA.NERRS:gndbhwq:1,2015-01-06T08:00:00Z,30.4178,-88.4054,1.19,21.0,1111122 
NERRS,ioos:station:NOAA.NERRS:gndbhwq:1,2015-01-06T09:00:00Z,30.4178,-88.4054,1.12,20.9,1111122 
NERRS,ioos:station:NOAA.NERRS:gndbhwq:1,2015-01-06T10:00:00Z,30.4178,-88.4054,1.02,20.8,1111122 
NERRS,ioos:station:NOAA.NERRS:gndbhwq:1,2015-01-06T11:00:00Z,30.4178,-88.4054,0.91,20.7,1111122 
NERRS,ioos:station:NOAA.NERRS:gndbhwq:1,2015-01-06T12:00:00Z,30.4178,-88.4054,0.81,20.6,1111122 
NERRS,ioos:station:NOAA.NERRS:gndbhwq:1,2015-01-06T13:00:00Z,30.4178,-88.4054,0.76,20.5,1111122 
NERRS,ioos:station:NOAA.NERRS:gndbhwq:1,2015-01-06T14:00:00Z,30.4178,-88.4054,0.77,20.7,1111122 
NERRS,ioos:station:NOAA.NERRS:gndbhwq:1,2015-01-06T15:00:00Z,30.4178,-88.4054,0.86,20.7,1111122 
NERRS,ioos:station:NOAA.NERRS:gndbhwq:1,2015-01-06T16:00:00Z,30.4178,-88.4054,0.89,20.9,1111122 
NERRS,ioos:station:NOAA.NERRS:gndbhwq:1,2015-01-06T17:00:00Z,30.4178,-88.4054,0.86,20.9,1111122 
NERRS,ioos:station:NOAA.NERRS:gndbhwq:1,2015-01-06T18:00:00Z,30.4178,-88.4054,0.87,20.9,1111122 
NERRS,ioos:station:NOAA.NERRS:gndbhwq:1,2015-01-06T19:00:00Z,30.4178,-88.4054,0.94,20.9,1111122 
NERRS,ioos:station:NOAA.NERRS:gndbhwq:1,2015-01-06T20:00:00Z,30.4178,-88.4054,1.03,21.0,1111122 
NERRS,ioos:station:NOAA.NERRS:gndbhwq:1,2015-01-06T21:00:00Z,30.4178,-88.4054,1.11,21.0,1111122 
NERRS,ioos:station:NOAA.NERRS:gndbhwq:1,2015-01-06T22:00:00Z,30.4178,-88.4054,1.09,21.2,1111122 
NERRS,ioos:station:NOAA.NERRS:gndbhwq:1,2015-01-06T23:00:00Z,30.4178,-88.4054,1.14,21.3,1111122 
NERRS,ioos:station:NOAA.NERRS:gndbhwq:1,2015-01-07T00:00:00Z,30.4178,-88.4054,1.16,21.4,1111122 
NERRS,ioos:station:NOAA.NERRS:gndbhwq:1,2015-01-07T01:00:00Z,30.4178,-88.4054,1.24,21.6,1111122 
NERRS,ioos:station:NOAA.NERRS:gndbhwq:1,2015-01-07T03:00:00Z,30.4178,-88.4054,1.39,21.6,1111122 
NERRS,ioos:station:NOAA.NERRS:gndbhwq:1,2015-01-07T04:00:00Z,30.4178,-88.4054,1.41,21.7,1111122 
NERRS,ioos:station:NOAA.NERRS:gndbhwq:1,2015-01-07T05:00:00Z,30.4178,-88.4054,1.35,21.7,1111122 
NERRS,ioos:station:NOAA.NERRS:gndbhwq:1,2015-01-07T06:00:00Z,30.4178,-88.4054,1.29,21.7,1111122 
NERRS,ioos:station:NOAA.NERRS:gndbhwq:1,2015-01-07T07:00:00Z,30.4178,-88.4054,1.24,21.6,1111122 
NERRS,ioos:station:NOAA.NERRS:gndbhwq:1,2015-01-07T08:00:00Z,30.4178,-88.4054,1.25,21.8,1111122 
NERRS,ioos:station:NOAA.NERRS:gndbhwq:1,2015-01-07T09:00:00Z,30.4178,-88.4054,1.18,21.6,1111122 
NERRS,ioos:station:NOAA.NERRS:gndbhwq:1,2015-01-07T10:00:00Z,30.4178,-88.4054,1.07,21.5,1111122 
NERRS,ioos:station:NOAA.NERRS:gndbhwq:1,2015-01-07T11:00:00Z,30.4178,-88.4054,0.98,21.4,1111122 
NERRS,ioos:station:NOAA.NERRS:gndbhwq:1,2015-01-07T12:00:00Z,30.4178,-88.4054,0.87,21.1,1111122 
NERRS,ioos:station:NOAA.NERRS:gndbhwq:1,2015-01-07T13:00:00Z,30.4178,-88.4054,0.83,21.0,1111122 
NERRS,ioos:station:NOAA.NERRS:gndbhwq:1,2015-01-07T14:00:00Z,30.4178,-88.4054,0.86,21.0,1111122 
NERRS,ioos:station:NOAA.NERRS:gndbhwq:1,2015-01-07T15:00:00Z,30.4178,-88.4054,0.92,21.2,1111122 
NERRS,ioos:station:NOAA.NERRS:gndbhwq:1,2015-01-07T16:00:00Z,30.4178,-88.4054,0.92,21.4,1111122 
NERRS,ioos:station:NOAA.NERRS:gndbhwq:1,2015-01-07T17:00:00Z,30.4178,-88.4054,0.91,21.3,1111122 
NERRS,ioos:station:NOAA.NERRS:gndbhwq:1,2015-01-07T18:00:00Z,30.4178,-88.4054,0.93,21.5,1111122 
NERRS,ioos:station:NOAA.NERRS:gndbhwq:1,2015-01-07T19:00:00Z,30.4178,-88.4054,0.8,21.4,1111122 
NERRS,ioos:station:NOAA.NERRS:gndbhwq:1,2015-01-07T20:00:00Z,30.4178,-88.4054,0.89,21.5,1111122 
NERRS,ioos:station:NOAA.NERRS:gndbhwq:1,2015-01-07T21:00:00Z,30.4178,-88.4054,0.92,21.5,1111122 
NERRS,ioos:station:NOAA.NERRS:gndbhwq:1,2015-01-07T22:00:00Z,30.4178,-88.4054,1.0,21.5,1111122 
NERRS,ioos:station:NOAA.NERRS:gndbhwq:1,2015-01-07T23:00:00Z,30.4178,-88.4054,0.91,21.5,1111122 
NERRS,ioos:station:NOAA.NERRS:gndbhwq:1,2015-01-08T00:00:00Z,30.4178,-88.4054,0.81,21.3,1111122 
NERRS,ioos:station:NOAA.NERRS:gndbhwq:1,2015-01-08T01:00:00Z,30.4178,-88.4054,0.8,21.4,1111122 
NERRS,ioos:station:NOAA.NERRS:gndbhwq:1,2015-01-08T02:00:00Z,30.4178,-88.4054,0.85,21.4,1111122 
NERRS,ioos:station:NOAA.NERRS:gndbhwq:1,2015-01-08T03:00:00Z,30.4178,-88.4054,0.87,21.4,1111122 
NERRS,ioos:station:NOAA.NERRS:gndbhwq:1,2015-01-08T04:00:00Z,30.4178,-88.4054,0.8,21.0,1111122 
NERRS,ioos:station:NOAA.NERRS:gndbhwq:1,2015-01-08T05:00:00Z,30.4178,-88.4054,0.92,21.1,1111122 
NERRS,ioos:station:NOAA.NERRS:gndbhwq:1,2015-01-08T07:00:00Z,30.4178,-88.4054,0.93,20.8,1111122 
NERRS,ioos:station:NOAA.NERRS:gndbhwq:1,2015-01-08T08:00:00Z,30.4178,-88.4054,1.02,20.5,1111122 
NERRS,ioos:station:NOAA.NERRS:gndbhwq:1,2015-01-08T09:00:00Z,30.4178,-88.4054,1.02,19.8,1111122 
NERRS,ioos:station:NOAA.NERRS:gndbhwq:1,2015-01-08T10:00:00Z,30.4178,-88.4054,0.99,19.8,1111122 
NERRS,ioos:station:NOAA.NERRS:gndbhwq:1,2015-01-08T11:00:00Z,30.4178,-88.4054,0.93,19.8,1111122 
NERRS,ioos:station:NOAA.NERRS:gndbhwq:1,2015-01-08T12:00:00Z,30.4178,-88.4054,0.87,19.2,1111122 
NERRS,ioos:station:NOAA.NERRS:gndbhwq:1,2015-01-08T13:00:00Z,30.4178,-88.4054,0.8,19.4,1111122 
NERRS,ioos:station:NOAA.NERRS:gndbhwq:1,2015-01-08T14:00:00Z,30.4178,-88.4054,0.79,19.2,1111122 
NERRS,ioos:station:NOAA.NERRS:gndbhwq:1,2015-01-08T15:00:00Z,30.4178,-88.4054,0.87,19.6,1111122 
NERRS,ioos:station:NOAA.NERRS:gndbhwq:1,2015-01-08T16:00:00Z,30.4178,-88.4054,0.98,19.7,1111122 
NERRS,ioos:station:NOAA.NERRS:gndbhwq:1,2015-01-08T17:00:00Z,30.4178,-88.4054,1.02,19.8,1111122 
NERRS,ioos:station:NOAA.NERRS:gndbhwq:1,2015-01-08T18:00:00Z,30.4178,-88.4054,1.03,19.6,1111122 
NERRS,ioos:station:NOAA.NERRS:gndbhwq:1,2015-01-08T19:00:00Z,30.4178,-88.4054,1.04,19.5,1111122 
NERRS,ioos:station:NOAA.NERRS:gndbhwq:1,2015-01-08T20:00:00Z,30.4178,-88.4054,1.05,19.4,1111122 
NERRS,ioos:station:NOAA.NERRS:gndbhwq:1,2015-01-08T21:00:00Z,30.4178,-88.4054,1.12,19.4,1111122 
NERRS,ioos:station:NOAA.NERRS:gndbhwq:1,2015-01-08T22:00:00Z,30.4178,-88.4054,1.1,19.4,1111122 
NERRS,ioos:station:NOAA.NERRS:gndbhwq:1,2015-01-08T23:00:00Z,30.4178,-88.4054,1.1,19.4,1111122 
NERRS,ioos:station:NOAA.NERRS:gndbhwq:1,2015-01-09T00:00:00Z,30.4178,-88.4054,1.05,19.3,1111122 
NERRS,ioos:station:NOAA.NERRS:gndbhwq:1,2015-01-09T01:00:00Z,30.4178,-88.4054,1.12,19.3,1111122 
NERRS,ioos:station:NOAA.NERRS:gndbhwq:1,2015-01-09T02:00:00Z,30.4178,-88.4054,1.18,19.3,1111122 
NERRS,ioos:station:NOAA.NERRS:gndbhwq:1,2015-01-09T03:00:00Z,30.4178,-88.4054,1.33,19.2,1111122 
NERRS,ioos:station:NOAA.NERRS:gndbhwq:1,2015-01-09T04:00:00Z,30.4178,-88.4054,1.35,19.1,1111122 
NERRS,ioos:station:NOAA.NERRS:gndbhwq:1,2015-01-09T05:00:00Z,30.4178,-88.4054,1.38,19.2,1111122 
NERRS,ioos:station:NOAA.NERRS:gndbhwq:1,2015-01-09T07:00:00Z,30.4178,-88.4054,1.2,19.1,1111122 
NERRS,ioos:station:NOAA.NERRS:gndbhwq:1,2015-01-09T08:00:00Z,30.4178,-88.4054,1.18,19.1,1111122 
NERRS,ioos:station:NOAA.NERRS:gndbhwq:1,2015-01-09T09:00:00Z,30.4178,-88.4054,1.18,19.8,1111122 
NERRS,ioos:station:NOAA.NERRS:gndbhwq:1,2015-01-09T10:00:00Z,30.4178,-88.4054,1.06,19.1,1111122 
NERRS,ioos:station:NOAA.NERRS:gndbhwq:1,2015-01-09T11:00:00Z,30.4178,-88.4054,0.99,19.0,1111122 
NERRS,ioos:station:NOAA.NERRS:gndbhwq:1,2015-01-09T12:00:00Z,30.4178,-88.4054,0.93,19.0,1111122 
NERRS,ioos:station:NOAA.NERRS:gndbhwq:1,2015-01-09T13:00:00Z,30.4178,-88.4054,0.86,19.1,1111122 
NERRS,ioos:station:NOAA.NERRS:gndbhwq:1,2015-01-09T14:00:00Z,30.4178,-88.4054,0.89,19.3,1111122 
NERRS,ioos:station:NOAA.NERRS:gndbhwq:1,2015-01-09T15:00:00Z,30.4178,-88.4054,0.92,19.5,1111122 
NERRS,ioos:station:NOAA.NERRS:gndbhwq:1,2015-01-09T16:00:00Z,30.4178,-88.4054,0.95,19.8,1111122 
NERRS,ioos:station:NOAA.NERRS:gndbhwq:1,2015-01-09T17:00:00Z,30.4178,-88.4054,1.02,20.1,1111122 
NERRS,ioos:station:NOAA.NERRS:gndbhwq:1,2015-01-09T18:00:00Z,30.4178,-88.4054,0.98,20.3,1111122 
NERRS,ioos:station:NOAA.NERRS:gndbhwq:1,2015-01-09T19:00:00Z,30.4178,-88.4054,0.98,20.6,1111122 
NERRS,ioos:station:NOAA.NERRS:gndbhwq:1,2015-01-09T20:00:00Z,30.4178,-88.4054,1.0,21.7,1111122 
NERRS,ioos:station:NOAA.NERRS:gndbhwq:1,2015-01-09T21:00:00Z,30.4178,-88.4054,1.09,21.1,1111122 
NERRS,ioos:station:NOAA.NERRS:gndbhwq:1,2015-01-09T22:00:00Z,30.4178,-88.4054,1.16,21.9,1111122 
NERRS,ioos:station:NOAA.NERRS:gndbhwq:1,2015-01-09T23:00:00Z,30.4178,-88.4054,1.17,21.8,1111122 
NERRS,ioos:station:NOAA.NERRS:gndbhwq:1,2015-01-10T00:00:00Z,30.4178,-88.4054,1.1,21.7,1111122 
NERRS,ioos:station:NOAA.NERRS:gndbhwq:1,2015-01-10T01:00:00Z,30.4178,-88.4054,1.1,21.7,1111122 
NERRS,ioos:station:NOAA.NERRS:gndbhwq:1,2015-01-10T02:00:00Z,30.4178,-88.4054,1.08,21.6,1111122 
NERRS,ioos:station:NOAA.NERRS:gndbhwq:1,2015-01-10T03:00:00Z,30.4178,-88.4054,1.11,21.9,1111122 
NERRS,ioos:station:NOAA.NERRS:gndbhwq:1,2015-01-10T04:00:00Z,30.4178,-88.4054,1.26,22.7,1111122 
NERRS,ioos:station:NOAA.NERRS:gndbhwq:1,2015-01-10T05:00:00Z,30.4178,-88.4054,1.13,22.2,1111122 
NERRS,ioos:station:NOAA.NERRS:gndbhwq:1,2015-01-10T06:00:00Z,30.4178,-88.4054,1.21,22.6,1111122 
NERRS,ioos:station:NOAA.NERRS:gndbhwq:1,2015-01-10T07:00:00Z,30.4178,-88.4054,1.24,22.3,1111122 
NERRS,ioos:station:NOAA.NERRS:gndbhwq:1,2015-01-10T08:00:00Z,30.4178,-88.4054,1.09,22.1,1111122 
NERRS,ioos:station:NOAA.NERRS:gndbhwq:1,2015-01-10T09:00:00Z,30.4178,-88.4054,1.19,22.0,1111122 
NERRS,ioos:station:NOAA.NERRS:gndbhwq:1,2015-01-10T10:00:00Z,30.4178,-88.4054,1.11,21.9,1111122 
NERRS,ioos:station:NOAA.NERRS:gndbhwq:1,2015-01-10T11:00:00Z,30.4178,-88.4054,1.05,21.7,1111122 
NERRS,ioos:station:NOAA.NERRS:gndbhwq:1,2015-01-10T12:00:00Z,30.4178,-88.4054,1.09,21.9,1111122 
NERRS,ioos:station:NOAA.NERRS:gndbhwq:1,2015-01-10T13:00:00Z,30.4178,-88.4054,0.93,21.5,1111122 
NERRS,ioos:station:NOAA.NERRS:gndbhwq:1,2015-01-10T14:00:00Z,30.4178,-88.4054,1.04,21.9,1111122 
NERRS,ioos:station:NOAA.NERRS:gndbhwq:1,2015-01-10T15:00:00Z,30.4178,-88.4054,1.0,21.8,1111122 
NERRS,ioos:station:NOAA.NERRS:gndbhwq:1,2015-01-10T16:00:00Z,30.4178,-88.4054,1.12,21.8,1111122 
NERRS,ioos:station:NOAA.NERRS:gndbhwq:1,2015-01-10T17:00:00Z,30.4178,-88.4054,1.13,21.9,1111122 
NERRS,ioos:station:NOAA.NERRS:gndbhwq:1,2015-01-10T18:00:00Z,30.4178,-88.4054,1.15,22.0,1111122 
NERRS,ioos:station:NOAA.NERRS:gndbhwq:1,2015-01-10T19:00:00Z,30.4178,-88.4054,1.19,22.0,1111122 
NERRS,ioos:station:NOAA.NERRS:gndbhwq:1,2015-01-10T20:00:00Z,30.4178,-88.4054,1.16,21.9,1111122 
NERRS,ioos:station:NOAA.NERRS:gndbhwq:1,2015-01-10T21:00:00Z,30.4178,-88.4054,1.25,22.0,1111122 
NERRS,ioos:station:NOAA.NERRS:gndbhwq:1,2015-01-10T22:00:00Z,30.4178,-88.4054,1.23,22.0,1111122 
NERRS,ioos:station:NOAA.NERRS:gndbhwq:1,2015-01-10T23:00:00Z,30.4178,-88.4054,1.21,21.9,1111122 
NERRS,ioos:station:NOAA.NERRS:gndbhwq:1,2015-01-11T00:00:00Z,30.4178,-88.4054,1.18,21.9,1111122 
NERRS,ioos:station:NOAA.NERRS:gndbhwq:1,2015-01-11T01:00:00Z,30.4178,-88.4054,1.23,21.9,1111122 
NERRS,ioos:station:NOAA.NERRS:gndbhwq:1,2015-01-11T02:00:00Z,30.4178,-88.4054,1.25,21.8,1111122 
NERRS,ioos:station:NOAA.NERRS:gndbhwq:1,2015-01-11T03:00:00Z,30.4178,-88.4054,1.25,21.8,1111122 
NERRS,ioos:station:NOAA.NERRS:gndbhwq:1,2015-01-11T04:00:00Z,30.4178,-88.4054,1.26,21.8,1111122 
NERRS,ioos:station:NOAA.NERRS:gndbhwq:1,2015-01-11T05:00:00Z,30.4178,-88.4054,1.22,21.6,1111122 
NERRS,ioos:station:NOAA.NERRS:gndbhwq:1,2015-01-11T06:00:00Z,30.4178,-88.4054,1.24,21.7,1111122 
NERRS,ioos:station:NOAA.NERRS:gndbhwq:1,2015-01-11T07:00:00Z,30.4178,-88.4054,1.2,21.7,1111122 
NERRS,ioos:station:NOAA.NERRS:gndbhwq:1,2015-01-11T08:00:00Z,30.4178,-88.4054,1.19,21.7,1111122 
NERRS,ioos:station:NOAA.NERRS:gndbhwq:1,2015-01-11T09:00:00Z,30.4178,-88.4054,1.18,21.7,1111122 
NERRS,ioos:station:NOAA.NERRS:gndbhwq:1,2015-01-11T10:00:00Z,30.4178,-88.4054,1.14,21.6,1111122 
NERRS,ioos:station:NOAA.NERRS:gndbhwq:1,2015-01-11T11:00:00Z,30.4178,-88.4054,1.11,21.6,1111122 
NERRS,ioos:station:NOAA.NERRS:gndbhwq:1,2015-01-11T12:00:00Z,30.4178,-88.4054,1.08,21.6,1111122 
NERRS,ioos:station:NOAA.NERRS:gndbhwq:1,2015-01-11T13:00:00Z,30.4178,-88.4054,1.06,21.5,1111122 
NERRS,ioos:station:NOAA.NERRS:gndbhwq:1,2015-01-11T14:00:00Z,30.4178,-88.4054,1.09,21.6,1111122 
NERRS,ioos:station:NOAA.NERRS:gndbhwq:1,2015-01-11T15:00:00Z,30.4178,-88.4054,1.14,21.6,1111122 
NERRS,ioos:station:NOAA.NERRS:gndbhwq:1,2015-01-11T16:00:00Z,30.4178,-88.4054,1.12,21.6,1111122 
NERRS,ioos:station:NOAA.NERRS:gndbhwq:1,2015-01-11T17:00:00Z,30.4178,-88.4054,1.19,21.6,1111122 
NERRS,ioos:station:NOAA.NERRS:gndbhwq:1,2015-01-11T18:00:00Z,30.4178,-88.4054,1.14,21.6,1111122 
NERRS,ioos:station:NOAA.NERRS:gndbhwq:1,2015-01-11T19:00:00Z,30.4178,-88.4054,1.27,21.9,1111122 
NERRS,ioos:station:NOAA.NERRS:gndbhwq:1,2015-01-11T20:00:00Z,30.4178,-88.4054,1.22,22.1,1111122 
NERRS,ioos:station:NOAA.NERRS:gndbhwq:1,2015-01-11T21:00:00Z,30.4178,-88.4054,1.31,22.2,1111122 
NERRS,ioos:station:NOAA.NERRS:gndbhwq:1,2015-01-11T22:00:00Z,30.4178,-88.4054,1.26,22.7,1111122 
NERRS,ioos:station:NOAA.NERRS:gndbhwq:1,2015-01-11T23:00:00Z,30.4178,-88.4054,1.35,22.9,1111122 
NERRS,ioos:station:NOAA.NERRS:gndbhwq:1,2015-01-12T00:00:00Z,30.4178,-88.4054,1.29,23.2,1111122 
NERRS,ioos:station:NOAA.NERRS:gndbhwq:1,2015-01-12T01:00:00Z,30.4178,-88.4054,1.38,23.4,1111122 
NERRS,ioos:station:NOAA.NERRS:gndbhwq:1,2015-01-12T02:00:00Z,30.4178,-88.4054,1.36,23.4,1111122 
NERRS,ioos:station:NOAA.NERRS:gndbhwq:1,2015-01-12T03:00:00Z,30.4178,-88.4054,1.38,23.1,1111122 
NERRS,ioos:station:NOAA.NERRS:gndbhwq:1,2015-01-12T04:00:00Z,30.4178,-88.4054,1.37,23.7,1111122 
NERRS,ioos:station:NOAA.NERRS:gndbhwq:1,2015-01-12T05:00:00Z,30.4178,-88.4054,1.34,23.2,1111122 
NERRS,ioos:station:NOAA.NERRS:gndbhwq:1,2015-01-12T06:00:00Z,30.4178,-88.4054,1.3,23.5,1111122 
NERRS,ioos:station:NOAA.NERRS:gndbhwq:1,2015-01-12T07:00:00Z,30.4178,-88.4054,1.26,23.3,1111122 
NERRS,ioos:station:NOAA.NERRS:gndbhwq:1,2015-01-12T08:00:00Z,30.4178,-88.4054,1.28,23.7,1111122 
NERRS,ioos:station:NOAA.NERRS:gndbhwq:1,2015-01-12T09:00:00Z,30.4178,-88.4054,1.23,23.4,1111122 
NERRS,ioos:station:NOAA.NERRS:gndbhwq:1,2015-01-12T10:00:00Z,30.4178,-88.4054,1.22,23.3,1111122 
NERRS,ioos:station:NOAA.NERRS:gndbhwq:1,2015-01-12T11:00:00Z,30.4178,-88.4054,1.21,23.7,1111122 
NERRS,ioos:station:NOAA.NERRS:gndbhwq:1,2015-01-12T12:00:00Z,30.4178,-88.4054,1.13,23.4,1111122 
NERRS,ioos:station:NOAA.NERRS:gndbhwq:1,2015-01-12T13:00:00Z,30.4178,-88.4054,1.15,23.5,1111122 
NERRS,ioos:station:NOAA.NERRS:gndbhwq:1,2015-01-12T14:00:00Z,30.4178,-88.4054,1.12,23.3,1111122 
NERRS,ioos:station:NOAA.NERRS:gndbhwq:1,2015-01-12T15:00:00Z,30.4178,-88.4054,1.12,23.2,1111122 
NERRS,ioos:station:NOAA.NERRS:gndbhwq:1,2015-01-12T16:00:00Z,30.4178,-88.4054,1.2,23.2,1111122 
NERRS,ioos:station:NOAA.NERRS:gndbhwq:1,2015-01-12T17:00:00Z,30.4178,-88.4054,1.18,23.4,1111122 
NERRS,ioos:station:NOAA.NERRS:gndbhwq:1,2015-01-12T18:00:00Z,30.4178,-88.4054,1.21,23.3,1111122 
NERRS,ioos:station:NOAA.NERRS:gndbhwq:1,2015-01-12T19:00:00Z,30.4178,-88.4054,1.19,23.1,1111122 
NERRS,ioos:station:NOAA.NERRS:gndbhwq:1,2015-01-12T20:00:00Z,30.4178,-88.4054,1.19,23.2,1111122 
NERRS,ioos:station:NOAA.NERRS:gndbhwq:1,2015-01-12T21:00:00Z,30.4178,-88.4054,1.27,23.2,1111122 
NERRS,ioos:station:NOAA.NERRS:gndbhwq:1,2015-01-12T22:00:00Z,30.4178,-88.4054,1.29,23.4,1111122 
NERRS,ioos:station:NOAA.NERRS:gndbhwq:1,2015-01-12T23:00:00Z,30.4178,-88.4054,1.3,23.1,1111122 
NERRS,ioos:station:NOAA.NERRS:gndbhwq:1,2015-01-13T00:00:00Z,30.4178,-88.4054,1.23,23.3,1111122 
NERRS,ioos:station:NOAA.NERRS:gndbhwq:1,2015-01-13T01:00:00Z,30.4178,-88.4054,1.23,23.3,1111122 
NERRS,ioos:station:NOAA.NERRS:gndbhwq:1,2015-01-13T02:00:00Z,30.4178,-88.4054,1.21,23.1,1111122 
NERRS,ioos:station:NOAA.NERRS:gndbhwq:1,2015-01-13T03:00:00Z,30.4178,-88.4054,1.24,23.1,1111122 
NERRS,ioos:station:NOAA.NERRS:gndbhwq:1,2015-01-13T04:00:00Z,30.4178,-88.4054,1.22,23.1,1111122 